UAL209 SEGU-SEQM

Flight info

Callsign UAL209
Flight time 0h 31m
Altitude 25000
Route DCT PAMIS DCT EDMAL DCT QSV DCT
Aircraft B739/M-SDE2E3FGHIRWXY/LB1

Departure

Time 2026-04-23 15:41
Airport José Joaquín de Olmedo International Airport (SEGU)

Arrival

Time 2026-04-23 16:12
Airport Mariscal Sucre International Airport (SEQM)
Time Latitude Longitude Altitude Speed Heading
2026-04-23 15:14 -2.15019 -79.88417 28 ft 0 kts 300°
2026-04-23 15:31 -2.15023 -79.88411 28 ft 2 kts 300°
2026-04-23 15:32 -2.15028 -79.88402 28 ft 1 kts 300°
2026-04-23 15:32 -2.15033 -79.88393 28 ft 1 kts 300°
2026-04-23 15:32 -2.15038 -79.88385 28 ft 1 kts 300°
2026-04-23 15:32 -2.15043 -79.88376 28 ft 1 kts 299°
2026-04-23 15:33 -2.15048 -79.88368 28 ft 1 kts 319°
2026-04-23 15:33 -2.15056 -79.88362 28 ft 1 kts 340°
2026-04-23 15:33 -2.15066 -79.88360 28 ft 1 kts
2026-04-23 15:33 -2.15070 -79.88359 28 ft 0 kts 25°
2026-04-23 15:35 -2.15039 -79.88342 28 ft 8 kts 28°
2026-04-23 15:35 -2.14991 -79.88316 28 ft 8 kts 30°
2026-04-23 15:36 -2.14944 -79.88289 28 ft 8 kts 30°
2026-04-23 15:36 -2.14879 -79.88251 28 ft 12 kts 30°
2026-04-23 15:36 -2.14810 -79.88211 28 ft 11 kts 31°
2026-04-23 15:36 -2.14791 -79.88145 28 ft 11 kts 121°
2026-04-23 15:37 -2.14831 -79.88080 28 ft 11 kts 120°
2026-04-23 15:37 -2.14838 -79.88043 28 ft 3 kts 51°
2026-04-23 15:37 -2.14804 -79.88014 28 ft 8 kts 31°
2026-04-23 15:37 -2.14754 -79.87986 28 ft 8 kts 30°
2026-04-23 15:38 -2.14712 -79.87962 28 ft 0 kts 30°
2026-04-23 15:38 -2.14706 -79.87958 28 ft 3 kts 30°
2026-04-23 15:38 -2.14676 -79.87937 28 ft 10 kts 45°
2026-04-23 15:39 -2.14653 -79.87868 28 ft 11 kts 75°
2026-04-23 15:39 -2.14637 -79.87798 27 ft 10 kts 90°
2026-04-23 15:39 -2.14669 -79.87749 27 ft 4 kts 168°
2026-04-23 15:39 -2.14692 -79.87759 27 ft 4 kts 211°
2026-04-23 15:40 -2.14714 -79.87773 26 ft 4 kts 211°
2026-04-23 15:40 -2.14736 -79.87786 26 ft 4 kts 211°
2026-04-23 15:40 -2.14766 -79.87804 26 ft 8 kts 210°
2026-04-23 15:40 -2.14979 -79.87927 28 ft 72 kts 210°
2026-04-23 15:41 -2.15629 -79.88300 27 ft 140 kts 210°
2026-04-23 15:41 -2.16612 -79.88876 184 ft 176 kts 210°
2026-04-23 15:41 -2.17680 -79.89488 894 ft 177 kts 200°
2026-04-23 15:41 -2.18890 -79.89553 1625 ft 179 kts 163°
2026-04-23 15:42 -2.19946 -79.88876 2237 ft 185 kts 132°
2026-04-23 15:42 -2.20593 -79.87778 2781 ft 197 kts 104°
2026-04-23 15:42 -2.20570 -79.86358 3065 ft 220 kts 69°
2026-04-23 15:42 -2.19770 -79.84984 3348 ft 240 kts 48°
2026-04-23 15:43 -2.18434 -79.83907 3707 ft 257 kts 33°
2026-04-23 15:43 -2.16859 -79.82952 4188 ft 271 kts 30°
2026-04-23 15:43 -2.15211 -79.82008 5034 ft 274 kts 30°
2026-04-23 15:43 -2.13541 -79.81052 5858 ft 279 kts 30°
2026-04-23 15:44 -2.11846 -79.80071 6630 ft 284 kts 31°
2026-04-23 15:44 -2.10130 -79.79066 7428 ft 287 kts 31°
2026-04-23 15:44 -2.08423 -79.78058 8189 ft 291 kts 31°
2026-04-23 15:44 -2.06671 -79.77016 8952 ft 295 kts 31°
2026-04-23 15:45 -2.04899 -79.75957 9737 ft 299 kts 31°
2026-04-23 15:45 -2.03098 -79.74877 10357 ft 308 kts 31°
2026-04-23 15:45 -2.01198 -79.73735 10677 ft 326 kts 31°
2026-04-23 15:45 -1.99236 -79.72554 11270 ft 333 kts 31°
2026-04-23 15:46 -1.97243 -79.71352 12003 ft 335 kts 31°
2026-04-23 15:46 -1.95242 -79.70145 12733 ft 338 kts 31°
2026-04-23 15:46 -1.93215 -79.68921 13418 ft 342 kts 31°
2026-04-23 15:46 -1.91195 -79.67701 14054 ft 345 kts 31°
2026-04-23 15:47 -1.89132 -79.66456 14655 ft 349 kts 30°
2026-04-23 15:47 -1.87044 -79.65195 15277 ft 352 kts 30°
2026-04-23 15:47 -1.84938 -79.63923 15892 ft 355 kts 30°
2026-04-23 15:47 -1.82815 -79.62641 16499 ft 358 kts 30°
2026-04-23 15:48 -1.80667 -79.61344 17097 ft 362 kts 30°
2026-04-23 15:48 -1.78502 -79.60036 17677 ft 365 kts 30°
2026-04-23 15:48 -1.76317 -79.58716 18262 ft 369 kts 30°
2026-04-23 15:48 -1.74125 -79.57392 18767 ft 372 kts 30°
2026-04-23 15:49 -1.71926 -79.56064 19306 ft 373 kts 31°
2026-04-23 15:49 -1.69695 -79.54717 19844 ft 375 kts 31°
2026-04-23 15:49 -1.67459 -79.53366 20388 ft 377 kts 31°
2026-04-23 15:49 -1.65209 -79.52007 20899 ft 379 kts 31°
2026-04-23 15:50 -1.62944 -79.50639 21436 ft 381 kts 31°
2026-04-23 15:50 -1.60674 -79.49268 22014 ft 381 kts 31°
2026-04-23 15:50 -1.58409 -79.47901 22679 ft 379 kts 31°
2026-04-23 15:50 -1.56151 -79.46537 23022 ft 380 kts 32°
2026-04-23 15:51 -1.53891 -79.45172 23036 ft 378 kts 32°
2026-04-23 15:51 -1.51674 -79.43834 23051 ft 377 kts 32°
2026-04-23 15:51 -1.49430 -79.42478 23066 ft 377 kts 32°
2026-04-23 15:51 -1.47180 -79.41120 23075 ft 378 kts 32°
2026-04-23 15:52 -1.44933 -79.39763 23083 ft 378 kts 32°
2026-04-23 15:52 -1.42677 -79.38401 23087 ft 379 kts 32°
2026-04-23 15:52 -1.40424 -79.37041 23092 ft 379 kts 32°
2026-04-23 15:52 -1.38166 -79.35678 23096 ft 379 kts 32°
2026-04-23 15:53 -1.35903 -79.34311 23100 ft 379 kts 32°
2026-04-23 15:53 -1.33645 -79.32948 23105 ft 379 kts 32°
2026-04-23 15:53 -1.31417 -79.31603 23114 ft 379 kts 32°
2026-04-23 15:53 -1.29162 -79.30242 23115 ft 379 kts 32°
2026-04-23 15:54 -1.26903 -79.28878 23123 ft 379 kts 32°
2026-04-23 15:54 -1.24656 -79.27522 23133 ft 378 kts 32°
2026-04-23 15:54 -1.22404 -79.26163 23138 ft 377 kts 32°
2026-04-23 15:54 -1.20159 -79.24807 23147 ft 377 kts 32°
2026-04-23 15:55 -1.17912 -79.23451 23155 ft 377 kts 32°
2026-04-23 15:55 -1.15670 -79.22098 23157 ft 376 kts 32°
2026-04-23 15:55 -1.13465 -79.20766 23169 ft 376 kts 32°
2026-04-23 15:55 -1.11223 -79.19413 23180 ft 376 kts 32°
2026-04-23 15:56 -1.08983 -79.18061 23179 ft 376 kts 32°
2026-04-23 15:56 -1.06750 -79.16713 23195 ft 376 kts 32°
2026-04-23 15:56 -1.04510 -79.15361 23202 ft 376 kts 32°
2026-04-23 15:56 -1.02272 -79.14010 23207 ft 376 kts 32°
2026-04-23 15:57 -1.00034 -79.12659 23197 ft 377 kts 32°
2026-04-23 15:57 -0.97788 -79.11303 23205 ft 377 kts 32°
2026-04-23 15:57 -0.95542 -79.09948 23211 ft 376 kts 32°
2026-04-23 15:57 -0.93335 -79.08616 23220 ft 376 kts 32°
2026-04-23 15:58 -0.91095 -79.07264 23226 ft 376 kts 32°
2026-04-23 15:58 -0.88856 -79.05912 23233 ft 376 kts 32°
2026-04-23 15:58 -0.86616 -79.04559 23233 ft 377 kts 32°
2026-04-23 15:58 -0.84383 -79.03212 23222 ft 372 kts 32°
2026-04-23 15:59 -0.82200 -79.01895 23238 ft 361 kts 32°
2026-04-23 15:59 -0.80070 -79.00598 23238 ft 358 kts 34°
2026-04-23 15:59 -0.78029 -78.99193 23246 ft 354 kts 37°
2026-04-23 15:59 -0.76039 -78.97729 23055 ft 356 kts 37°
2026-04-23 16:00 -0.74093 -78.96279 22796 ft 352 kts 37°
2026-04-23 16:00 -0.72126 -78.94820 22397 ft 351 kts 37°
2026-04-23 16:00 -0.70166 -78.93378 22016 ft 349 kts 36°
2026-04-23 16:00 -0.68211 -78.91950 21632 ft 347 kts 36°
2026-04-23 16:01 -0.66264 -78.90532 21241 ft 345 kts 36°
2026-04-23 16:01 -0.64326 -78.89123 20862 ft 344 kts 36°
2026-04-23 16:01 -0.62388 -78.87716 20462 ft 345 kts 35°
2026-04-23 16:01 -0.60447 -78.86304 20055 ft 346 kts 35°
2026-04-23 16:02 -0.58526 -78.84910 19625 ft 346 kts 35°
2026-04-23 16:02 -0.56578 -78.83498 19227 ft 346 kts 35°
2026-04-23 16:02 -0.54633 -78.82087 18838 ft 345 kts 36°
2026-04-23 16:02 -0.52752 -78.80597 18417 ft 346 kts 41°
2026-04-23 16:03 -0.51070 -78.78885 17994 ft 345 kts 49°
2026-04-23 16:03 -0.49628 -78.76966 17472 ft 347 kts 56°
2026-04-23 16:03 -0.48424 -78.74850 16886 ft 348 kts 64°
2026-04-23 16:03 -0.47486 -78.72644 16438 ft 342 kts 70°
2026-04-23 16:04 -0.46813 -78.70433 16084 ft 333 kts 77°
2026-04-23 16:04 -0.46274 -78.68227 15797 ft 323 kts 76°
2026-04-23 16:04 -0.45730 -78.66079 15459 ft 314 kts 76°
2026-04-23 16:04 -0.45193 -78.64000 15200 ft 304 kts 75°
2026-04-23 16:05 -0.44784 -78.62678 15019 ft 300 kts 71°
2026-04-23 16:05 -0.43736 -78.60095 14651 ft 301 kts 65°
2026-04-23 16:05 -0.42777 -78.58242 14369 ft 298 kts 60°
2026-04-23 16:05 -0.41694 -78.56485 14107 ft 296 kts 56°
2026-04-23 16:06 -0.40476 -78.54834 13797 ft 294 kts 50°
2026-04-23 16:06 -0.39119 -78.53350 13530 ft 292 kts 44°
2026-04-23 16:06 -0.37639 -78.51976 13262 ft 289 kts 40°
2026-04-23 16:06 -0.36084 -78.50726 12985 ft 286 kts 36°
2026-04-23 16:07 -0.34466 -78.49589 12730 ft 282 kts 32°
2026-04-23 16:07 -0.32845 -78.48529 12467 ft 275 kts 38°
2026-04-23 16:07 -0.31565 -78.47155 12200 ft 266 kts 58°
2026-04-23 16:07 -0.30793 -78.45513 11982 ft 259 kts 73°
2026-04-23 16:08 -0.30468 -78.43770 11755 ft 253 kts 86°
2026-04-23 16:08 -0.30459 -78.42027 11536 ft 250 kts 92°
2026-04-23 16:08 -0.30515 -78.40294 11293 ft 249 kts 91°
2026-04-23 16:08 -0.30374 -78.38613 11076 ft 242 kts 74°
2026-04-23 16:09 -0.29720 -78.37119 10858 ft 229 kts 54°
2026-04-23 16:09 -0.28666 -78.35997 10648 ft 216 kts 35°
2026-04-23 16:09 -0.27392 -78.35289 10436 ft 205 kts 20°
2026-04-23 16:09 -0.26027 -78.34924 10270 ft 204 kts
2026-04-23 16:10 -0.24624 -78.34894 10002 ft 199 kts 355°
2026-04-23 16:10 -0.23263 -78.34972 9800 ft 194 kts 356°
2026-04-23 16:10 -0.21923 -78.35031 9608 ft 194 kts 356°
2026-04-23 16:10 -0.20601 -78.35087 9376 ft 184 kts 356°
2026-04-23 16:11 -0.19355 -78.35142 9116 ft 173 kts 356°
2026-04-23 16:11 -0.18194 -78.35193 8833 ft 165 kts 356°
2026-04-23 16:11 -0.17056 -78.35240 8545 ft 164 kts 356°
2026-04-23 16:11 -0.15908 -78.35284 8314 ft 165 kts 356°
2026-04-23 16:12 -0.14761 -78.35336 8092 ft 165 kts 356°
2026-04-23 16:12 -0.13631 -78.35388 7894 ft 158 kts 356°
2026-04-23 16:12 -0.12710 -78.35432 7857 ft 101 kts 358°
2026-04-23 16:12 -0.12223 -78.35452 7836 ft 39 kts 357°
2026-04-23 16:13 -0.12038 -78.35460 7827 ft 24 kts 358°
2026-04-23 16:13 -0.11729 -78.35514 7818 ft 15 kts 334°
2026-04-23 16:13 -0.11647 -78.35563 7816 ft 12 kts 327°
2026-04-23 16:14 -0.11643 -78.35565 7815 ft 0 kts 327°
2026-04-23 16:14 -0.11634 -78.35571 7815 ft 5 kts 327°
2026-04-23 16:15 -0.11609 -78.35607 7810 ft 7 kts 276°
2026-04-23 16:15 -0.11637 -78.35642 7815 ft 7 kts 204°
2026-04-23 16:15 -0.11683 -78.35644 7816 ft 7 kts 179°
2026-04-23 16:15 -0.11761 -78.35641 7820 ft 14 kts 177°
2026-04-23 16:16 -0.11855 -78.35636 7823 ft 13 kts 177°
2026-04-23 16:16 -0.11945 -78.35633 7827 ft 13 kts 178°
2026-04-23 16:16 -0.12033 -78.35629 7832 ft 13 kts 177°
2026-04-23 16:16 -0.12119 -78.35625 7837 ft 12 kts 178°
2026-04-23 16:17 -0.12203 -78.35622 7831 ft 12 kts 177°
2026-04-23 16:17 -0.12285 -78.35619 7840 ft 12 kts 178°
2026-04-23 16:17 -0.12351 -78.35640 7838 ft 10 kts 236°
2026-04-23 16:17 -0.12360 -78.35707 7838 ft 10 kts 268°
2026-04-23 16:18 -0.12363 -78.35773 7837 ft 9 kts 267°
2026-04-23 16:18 -0.12350 -78.35833 7838 ft 9 kts 316°
2026-04-23 16:18 -0.12290 -78.35846 7840 ft 9 kts 359°
2026-04-23 16:18 -0.12257 -78.35860 7834 ft 3 kts 296°
2026-04-23 16:19 -0.12255 -78.35884 7836 ft 4 kts 268°
2026-04-23 16:19 -0.12256 -78.35919 7840 ft 5 kts 268°
2026-04-23 16:19 -0.12257 -78.35930 7840 ft 0 kts 268°